EW0380 Weather Reports


Display with metric or nautical units.
time (UTC)temp
F
wind
direction
speed
MPH
gust
MPH
rain 1hr
in
rain 24hr
in
rain mn
in
humidity
%
barometer
mb
20260904023719 70 0.0 0.0 0.00 0.75 0.75 99 1014.9
20260904022719 70 0.0 0.0 0.00 0.75 0.75 99 1014.6
20260904021721 70 0.0 0.0 0.00 0.75 0.75 99 1014.9
20260904020719 70 0.0 0.0 0.00 0.75 0.75 99 1015.3
20260904015719 70 0.0 0.0 0.00 0.75 0.75 99
20260904014719 70 358 2.0 4.0 0.00 0.75 0.75 99
20260904013719 70 0.0 0.0 0.00 0.75 0.75 99
20260904012739 71 0.0 0.0 0.00 0.75 0.75 99
20260904011719 71 0.0 0.0 0.00 0.75 0.75 99
20260904010720 71 133 3.0 4.0 0.01 0.75 0.75 99
20260904005800 71 126 1.0 3.0 0.02 0.75 0.75 99
20260904004719 71 123 3.0 4.0 0.05 0.75 0.75 99
20260904003719 71 170 5.0 7.0 0.09 0.75 0.75 99
20260904002719 70 152 5.0 7.0 0.13 0.75 0.75 99
20260904001719 70 133 5.0 7.0 0.17 0.75 0.75 99
20260904000719 70 136 3.0 5.0 0.19 0.74 0.74 99
20260903235719 70 0.0 0.0 0.20 0.73 0.73 99
20260903234719 70 0.0 0.0 0.21 0.69 0.69 99
20260903233719 71 0.0 0.0 0.33 0.66 0.66 99
20260903232719 71 174 2.0 2.0 0.34 0.62 0.62 99
20260903231720 71 292 3.0 4.0 0.32 0.58 0.58 99
20260903230719 71 2 5.0 7.0 0.29 0.55 0.55 99
20260903225739 71 355 6.0 9.0 0.26 0.53 0.53 99
20260903224719 71 356 7.0 12.0 0.22 0.48 0.48 99
20260903223719 71 304 17.0 20.0 0.07 0.33 0.33 98
20260903222719 73 324 8.0 9.0 0.01 0.27 0.27 93
20260903221719 76 356 9.0 13.0 0.00 0.26 0.26 99
20260903220720 76 23 2.0 4.0 0.00 0.26 0.26 99
20260903215719 76 0.0 0.0 0.00 0.26 0.26 99
20260903214719 76 0.0 0.0 0.00 0.26 0.26 99
20260903213739 77 0.0 0.0 0.00 0.26 0.26 97
20260903212719 77 0.0 0.0 0.04 0.26 0.26 97
20260903211719 77 356 1.0 2.0 0.08 0.26 0.26 97
20260903210720 77 336 4.0 6.0 0.08 0.26 0.26 98
20260903205719 78 322 6.0 7.0 0.08 0.26 0.26 97
20260903204740 78 326 4.0 5.0 0.08 0.26 0.26 97
20260903203719 78 339 5.0 6.0 0.08 0.26 0.26 95
20260903202719 78 6 6.0 8.0 0.03 0.22 0.22 96
20260903201740 79 341 8.0 9.0 0.00 0.19 0.19 93
20260903200720 80 320 6.0 8.0 0.00 0.19 0.19 89
20260903195719 81 304 7.0 9.0 0.00 0.19 0.19 88
20260903194719 80 310 6.0 7.0 0.00 0.19 0.19 89
20260903193719 81 342 10.0 12.0 0.00 0.19 0.19 88
20260903192719 81 349 11.0 13.0 0.00 0.19 0.19 88
20260903191719 82 341 8.0 11.0 0.00 0.19 0.19 83
20260903190719 83 303 7.0 9.0 0.00 0.19 0.19 84
20260903185800 83 314 5.0 7.0 0.00 0.19 0.19 82
20260903184740 82 306 9.0 13.0 0.00 0.19 0.19 85
20260903183739 82 343 4.0 6.0 0.00 0.19 0.19 86
20260903182719 82 309 4.0 8.0 0.00 0.19 0.19 86
20260903181719 83 353 5.0 6.0 0.00 0.19 0.19 85 1014.9
20260903180719 83 314 5.0 7.0 0.00 0.19 0.19 84 1014.9
20260903175719 83 318 4.0 5.0 0.00 0.19 0.19 84 1015.3
20260903174719 84 299 3.0 4.0 0.00 0.19 0.19 83 1014.7
20260903173720 84 298 6.0 7.0 0.00 0.19 0.19 82 1015.4
20260903172739 84 305 6.0 7.0 0.00 0.19 0.19 82 1015.4
20260903171719 84 289 5.0 7.0 0.00 0.19 0.19 82 1015.4
20260903170720 84 259 1.0 2.0 0.00 0.19 0.19 82 1015.4
20260903165719 84 300 4.0 6.0 0.00 0.19 0.19 81 1015.4
20260903164719 84 209 1.0 2.0 0.00 0.19 0.19 80 1015.7
20260903163719 84 36 1.0 2.0 0.00 0.19 0.19 81 1015.7
20260903162719 84 170 3.0 4.0 0.00 0.19 0.19 80 1015.7
20260903161739 83 130 2.0 5.0 0.00 0.19 0.19 79 1015.6
20260903160719 83 199 3.0 5.0 0.00 0.19 0.19 80 1015.7
20260903155720 82 203 3.0 5.0 0.00 0.19 0.19 80 1015.6
20260903154719 82 160 5.0 8.0 0.00 0.19 0.19 80 1015.7
20260903153723 81 248 3.0 6.0 0.00 0.19 0.19 82 1015.7
20260903152719 80 176 5.0 8.0 0.00 0.19 0.19 82 1015.6
20260903151720 80 149 7.0 9.0 0.00 0.19 0.19 81 1015.6
20260903150719 80 196 5.0 6.0 0.00 0.19 0.19 84 1016.0
20260903145719 78 213 3.0 6.0 0.00 0.19 0.19 90 1015.9
20260903144719 78 244 3.0 5.0 0.00 0.19 0.19 91 1015.9
20260903143719 77 231 2.0 5.0 0.00 0.19 0.19 90 1015.9
20260903142720 76 201 3.0 6.0 0.00 0.19 0.19 92 1015.5
20260903141720 76 322 0.0 2.0 0.00 0.19 0.19 94 1015.8
20260903140720 76 150 5.0 7.0 0.00 0.19 0.19 93 1015.9
20260903140401 76 153 2.0 5.0 0.00 0.19 0.19 95 1015.9
20260903134228 0 0.0 0.0 0.00 0.19 0.19
20260903133920 0 0.0 0.0 0.00 0.19 0.19
20260903132920 0 0.0 0.0 0.00 0.19 0.19
20260903132740 0 0.0 0.0 0.00 0.19 0.19
20260903132120 0 0.0 0.0 0.00 0.19 0.19
20260903131120 0 0.0 0.0 0.00 0.19 0.19
20260903130119 0 0.0 0.0 0.00 0.19 0.19
20260903125140 0 0.0 0.0 0.00 0.19 0.19
20260903123840 0 0.0 0.0 0.00 0.19 0.19
20260903122819 0 0.0 0.0 0.00 0.19 0.19
20260903121820 0 0.0 0.0 0.00 0.23 0.19
20260903120820 0 0.0 0.0 0.00 0.23 0.19
20260903115820 0 0.0 0.0 0.00 0.23 0.19
20260903114840 0 0.0 0.0 0.00 0.23 0.19
20260903113819 0 0.0 0.0 0.00 0.23 0.19
20260903112820 0 0.0 0.0 0.00 0.23 0.19
20260903111841 0 0.0 0.0 0.00 0.23 0.19
20260903110819 0 0.0 0.0 0.00 0.23 0.19
20260903105819 0 0.0 0.0 0.00 0.23 0.19
20260903104820 0 0.0 0.0 0.00 0.23 0.19
20260903103819 0 0.0 0.0 0.00 0.23 0.19
20260903102840 0 0.0 0.0 0.00 0.23 0.19
20260903101820 0 0.0 0.0 0.00 0.23 0.19
20260903100819 0 0.0 0.0 0.00 0.23 0.19
20260903095820 0 0.0 0.0 0.00 0.23 0.19
20260903094819 0 0.0 0.0 0.00 0.23 0.19
20260903093840 0 0.0 0.0 0.00 0.23 0.19
20260903092820 0 0.0 0.0 0.00 0.23 0.19
20260903091819 0 0.0 0.0 0.00 0.23 0.19
20260903090859 0 0.0 0.0 0.00 0.23 0.19
20260903085820 0 0.0 0.0 0.00 0.23 0.19
20260903084841 0 0.0 0.0 0.00 0.23 0.19
20260903083819 0 0.0 0.0 0.00 0.23 0.19
20260903082820 0 0.0 0.0 0.00 0.23 0.19
20260903081820 0 0.0 0.0 0.00 0.23 0.19
20260903080820 0 0.0 0.0 0.00 0.23 0.19
20260903075820 0 0.0 0.0 0.00 0.23 0.19
20260903074819 0 0.0 0.0 0.00 0.23 0.19
20260903073819 0 0.0 0.0 0.00 0.23 0.19
20260903072819 0 0.0 0.0 0.00 0.23 0.19
20260903053919 73 155 2.0 2.0 0.03 0.08 0.03 93 1014.7
20260903052920 74 163 3.0 4.0 0.00 0.04 0.00 88 1015.1
20260903051919 75 0.0 0.0 0.00 0.04 0.00 86 1015.4
20260903050939 75 8 9.0 13.0 0.00 0.04 0.00 85 1015.1
20260903045920 77 333 14.0 19.0 0.00 0.04 0.00 86 1014.8
20260903045100 76 105 1.0 2.0 0.00 0.04 0.00 86 1014.4
20260903043920 76 102 0.0 2.0 0.00 0.04 0.00 87 1014.4
20260903042919 75 0.0 0.0 0.00 0.04 0.00 88 1014.3
20260903041919 75 0.0 0.0 0.00 0.04 0.00 86 1014.7
20260903040920 75 149 2.0 2.0 0.00 0.04 0.00 88 1014.3
20260903035940 75 0.0 0.0 0.00 0.04 0.04 87 1013.6
20260903034920 75 120 1.0 2.0 0.00 0.04 0.04 87 1013.3
20260903033920 76 138 1.0 2.0 0.00 0.04 0.04 86 1013.9
20260903032919 76 171 3.0 4.0 0.00 0.04 0.04 85 1013.6
20260903031919 76 113 2.0 4.0 0.00 0.04 0.04 85 1013.6
20260903030919 77 123 1.0 2.0 0.00 0.04 0.04 83 1014.0
20260903025920 77 149 4.0 5.0 0.00 0.04 0.04 86 1014.3
20260903024940 78 162 3.0 4.0 0.00 0.04 0.04 84 1014.6